Regional Weather Roundup
Issued by NWS

Home | Current Version | Previous Version | Text Only | Print | Product List | Glossary Off
Versions: 1 2 3 4 5 6 7 8 9 10 11 12 13 14 15 16 17 18 19 20 21 22 23 24 25 26 27 28 29 30 31 32 33 34 35 36 37 38 39 40 41 42 43 44 45 46 47 48 49 50

000
ASUS43 KLMK 251902
RWRKY
KENTUCKY REGIONAL WEATHER ROUNDUP
NATIONAL WEATHER SERVICE LOUISVILLE KY
300 PM EDT MON JUL 25 2016

NOTE "FAIR" INDICATES FEW OR NO CLOUDS BELOW 12,000 FEET
WITH NO SIGNIFICANT WEATHER AND/OR OBSTRUCTIONS TO VISIBILITY.

KYZ001>023-026-027-061>063-070>075-252000-
WESTERN AND SOUTH CENTRAL KENTUCKY

CITY           SKY/WX    TMP DP  RH WIND       PRES   REMARKS
PADUCAH        PTSUNNY   85  72  65 W21G31    29.99S HX  91
HENDERSON      CLOUDY    82  73  74 N8        29.98R THUNDER
OWENSBORO      PTSUNNY   85  76  74 NW16      30.00R THUNDER HX  94
HOPKINSVILLE   MOSUNNY   90  75  60 SW12      29.98F HAZE    HX 100
BOWLING GREEN  MOSUNNY   93  74  53 SW8       29.99F HX 103
GLASGOW        NOT AVBL
$$

KYZ024-025-028>034-038-045-046-053-252000-
NORTH CENTRAL KENTUCKY

CITY           SKY/WX    TMP DP  RH WIND       PRES   REMARKS
LOUISVILLE/SDF CLOUDY    89  74  60 N12       29.98F THUNDER HX  98
LOUISVILLE/LOU CLOUDY    91  74  57 N7        29.99S HX 100
FORT KNOX      MOSUNNY   92  75  58 W7        29.98F HX 102
$$

KYZ035>037-039>044-047>052-055>060-089>105-252000-
NORTHEAST KENTUCKY

CITY           SKY/WX    TMP DP  RH WIND       PRES   REMARKS
LEXINGTON      CLOUDY    84  70  62 SW14      30.01F THUNDER
COVINGTON      PTSUNNY   90  72  55 W10       29.99F HX  97
FRANKFORT      LGT RAIN  76  69  79 N8        30.03S
$$

KYZ054-064>069-076>088-106>120-252000-
SOUTHEAST KENTUCKY

CITY           SKY/WX    TMP DP  RH WIND       PRES   REMARKS
JACKSON        CLOUDY    92  74  55 VRB5      30.03F HX 101
LONDON         MOSUNNY   92  69  47 SW8       30.04F HX  97
SOMERSET       CLOUDY    88  70  55 W6        30.04F HX  92
MIDDLESBORO    PTSUNNY   94  72  48 SW6       30.03F HX 101
MONTICELLO     PTCLDY   N/A N/A N/A W13       30.04F
$$




USA.gov is the U.S. government's official web portal to all federal, state and local government web resources and services.